Погода в Серпухове

Россия / Московская область     54°54′48″N   37°25′00″E
темп.,
°C
ветер,
м/с
пор.,
м/с
влажн.,
%
обл.,
%
осадки,
мм/ч
давл.,
гПа
погр.,
м
7 мая, пт
пт700:00+7юз3109387 0.0 1009556
03:00+5юз3896100 0.0 1010308
06:00+5юз2693100 0.0 1010255
09:00+9зюз47595 0.0 10111041
12:00+13з47395 0.0 10122157
15:00+14зюз4735100 0.0 10122676
18:00+13ююз464672 0.0 10121057
21:00+8ююв31069100 0.0 1012227
8 мая, сб
сб800:00+8ююв41364100 0.0 1012385
03:00+9ю51263100 0.1 10111019
06:00+7ююв61491100 3.8 10091188
09:00+8ююв61694100 9.6 10071470
12:00+8ююв51296100 4.3 1005942
15:00+9ю41197100 8.3 1004847
18:00+9ю2698100 1.8 1002424
21:00+8зсз3598100 2.7 1003253
9 мая, вс
вс900:00+7вюв0097100 0.0 100311
03:00+7ююв2398100 0.9 1003183
06:00+6ссз61197100 6.1 10061007
09:00+2сз61598100 9.6 1011716
12:00+7ссз71186100 1.2 10141138
15:00+10ссз611585 1.3 10161745
18:00+11ссз595651 0.0 10181836
21:00+5сз38791 0.0 1021149
10 мая, пн
пн1000:00+3ссз28820 0.0 1023146
03:00+2ссз38845 0.0 1026152
06:00+3с28815 0.0 1028193
09:00+10ссв365610 0.0 1028655
12:00+14ссв464291 0.0 10291313
15:00+15ссв464026 0.0 10281362
18:00+14св36520 0.0 1028912
21:00+8св35780 0.0 102978
11 мая, вт
вт1100:00+6всв25791 0.0 103080
03:00+5св37840 0.0 1030131
06:00+6св310805 0.0 1030240
09:00+13всв49554 0.0 1030664
12:00+16всв574412 0.0 10291058
15:00+18всв464399 0.0 10281153
18:00+17в2659100 0.0 1028321
21:00+11всв3480100 0.0 102858